{"data":{"norad_id":54119,"intl_designator":"2022-138G","name":"ONEWEB-0501","alt_names":[],"object_type":"PAYLOAD","status":"ACTIVE","operator":null,"country":"UK","launch_date":"2022-10-22","launch_site_code":"SRILR","launch_vehicle":null,"mission":null,"orbit_class":"UNKNOWN","rcs_meters":null,"size_class":null,"mass_kg":null,"dimensions":null,"purposes":["comms"],"wikipedia_slug":null,"has_3d_model":false,"image_url":null,"decayed_at":null,"tle_current":{"epoch":"2026-09-20T00:18:42.562368Z","epoch_age_seconds":67914,"freshness":"FRESH","line1":"1 54119U 22138G   26263.01299262  .00000016  00000+0  85213-5 0  9996","line2":"2 54119  87.9106 286.0758 0002008  79.9114 280.2245 13.19725698189316","mean_motion":13.19725698,"eccentricity":0.0002008,"inclination_deg":87.9106,"raan_deg":286.0758,"arg_perigee_deg":79.9114,"mean_anomaly_deg":280.2245,"bstar":8.5213e-6,"rev_number":18931,"period_min":109.11358338951,"perigee_km":1184.249052874,"apogee_km":1187.2867170758,"semimajor_km":7563.9048849749,"source":"CELESTRAK","updated_at":"2026-09-20T09:00:44.716141Z"}}}